Regional Weather Roundup
Issued by NWS

Home | Current Version | Previous Version | Graphics & Text | Print | Product List | Glossary On
Versions: 1 2 3 4 5 6 7 8 9 10 11 12 13 14 15 16 17 18 19 20 21 22 23 24 25 26 27 28
000
ASUS45 KPSR 192110
RWRAZ

ARIZONA HOURLY REGIONAL WEATHER ROUNDUP
NATIONAL WEATHER SERVICE PHOENIX AZ
200 PM MST SAT AUG 19 2017

NOTE: FAIR INDICATES FEW OR NO CLOUDS BELOW 12,000 FEET WITH NO
SIGNIFICANT WEATHER AND/OR OBSTRUCTIONS TO VISIBILITY.

AZZ001>003-036-192200-
NORTHWEST ARIZONA

CITY           SKY/WX    TMP DP  RH WIND       PRES   REMARKS
BULLHEAD CITY  SUNNY    106  39  10 SW16G25   29.79F HX 100
KINGMAN        SUNNY     97  41  14 SW10G23   30.01F
$$

AZZ004>008-015-016-018-192200-
NORTH CENTRAL ARIZONA

CITY           SKY/WX    TMP DP  RH WIND       PRES   REMARKS
GRAND CANYON   MOSUNNY   82  33  17 SE3G21    30.26F
WILLIAMS       MOSUNNY   82  43  24 SW8G15    30.27F
PRESCOTT       MOSUNNY   84  42  22 SW7       30.15F
FLAGSTAFF      SUNNY     80  39  23 SW14      30.29F
PAYSON           N/A     88  36  15 W8G21     30.16F
PAGE           SUNNY     98  35  11 CALM      30.01F
$$

AZZ009>014-017-192200-
NORTHEAST ARIZONA

CITY           SKY/WX    TMP DP  RH WIND       PRES   REMARKS
WINSLOW        MOSUNNY   93  36  13 MISG      30.09F
SAINT JOHNS    MOSUNNY   88  33  14 CALM      30.15F
WINDOW ROCK    PTSUNNY   86  30  13 W8        30.22F
SHOW LOW       MOSUNNY   82  36  18 CALM      30.22F
$$

AZZ540-542>544-546-548-192200-
GREATER PHOENIX AREA

CITY           SKY/WX    TMP DP  RH WIND       PRES   REMARKS
PHOENIX        MOSUNNY  101  47  16 W8        29.85F
BUCKEYE        SUNNY    100  52  19 S10       29.86F
GLENDALE       MOSUNNY  102  46  15 SW6       29.87F
LUKE AFB       SUNNY    101  49  17 S9        29.84F
DEER VALLEY    SUNNY    100  45  15 W7G16     29.87F
SCOTTSDALE     SUNNY    101  45  15 W10       29.89F
MESA-FALCON    MOSUNNY  100  52  19 SW7       29.88F
MESA-GATEWAY   MOSUNNY   99  48  18 VRB6      29.89F
CHANDLER       SUNNY    102  46  15 SW16      29.87F
$$

AZZ539-553-192200-
SOUTHWEST MARICOPA COUNTY AND PINAL COUNTY

CITY           SKY/WX    TMP DP  RH WIND       PRES   REMARKS
CASA GRANDE    MOSUNNY   98  49  18 VRB6      29.90F
GILA BEND      FAIR     103  51  17 CALM      29.83F HX 100
$$

AZZ503-504-507>509-192200-
SOUTHEAST ARIZONA

CITY           SKY/WX    TMP DP  RH WIND       PRES   REMARKS
TUCSON         NOT AVBL
DAVIS-MONTHAN  CLOUDY    92  47  20 NW10      29.98F
RYAN FIELD     MOSUNNY   93  46  20 W10       29.99F
NOGALES        CLOUDY    85  56  37 VRB5      30.09F
SIERRA VISTA   CLOUDY    84  48  28 W15       30.14F
DOUGLAS        CLOUDY    84  55  36 W6        30.07F
SAFFORD        MOSUNNY   97  40  14 W9        29.94F
$$

AZZ532-192200-
SOUTHWEST ARIZONA

CITY           SKY/WX    TMP DP  RH WIND       PRES   REMARKS
YUMA           SUNNY    103  59  23 S9        29.78F HX 103
$$

CAZ041-043-047-048-061-525>527-560>570-192200-
SOUTHERN CALIFORNIA

CITY           SKY/WX    TMP DP  RH WIND       PRES   REMARKS
DOWNTOWN L.A.  SUNNY     79  61  53 CALM      29.93S
L.A. AIRPORT   MOSUNNY   73  61  65 W15       29.95S
SAN DIEGO      MOSUNNY   76  62  62 W12       29.96S
BURBANK        SUNNY     82  58  43 S10       29.92F
ONTARIO        MOSUNNY   87  57  35 W9        29.92F
RIVERSIDE      SUNNY     88  60  38 W9        29.91F
PALM SPRINGS   SUNNY    102  53  19 VRB5      29.82F HX 100
EL CENTRO NAS  MOSUNNY  103  42  12 SE6       29.78F
IMPERIAL       SUNNY    103  57  21 E5        29.76F HX 102
BLYTHE         SUNNY    103  52  18 S7        29.80F HX 100
NEEDLES        SUNNY    108  29   6 S13G21    29.81F HX 100
$$

NVZ020-UTZ003-192200-
SOUTHERN NEVADA-UTAH

CITY           SKY/WX    TMP DP  RH WIND       PRES   REMARKS
LAS VEGAS      MOSUNNY  101  37  11 VRB3      29.88F
SALT LAKE CITY MOSUNNY   93  33  12 CALM      30.01F
$$

NMZ009-TXZ055-192200-
NEW MEXICO-WEST TEXAS

CITY           SKY/WX    TMP DP  RH WIND       PRES   REMARKS
ALBUQUERQUE    CLOUDY    90  46  21 SW10      30.11F
EL PASO        PTSUNNY   85  60  42 W3        30.06F
$$


........................KEY........................
SKY/WX - SKY CONDITION/WEATHER
TMP    - TEMPERATURE IN FAHRENHEIT
DP     - DEW POINT IN FAHRENHEIT
RH     - RELATIVE HUMIDITY IN PERCENT
WIND   - DIRECTION AND SPEED IN MILES PER HOUR (MPH)
VRB    - VARIABLE WIND DIRECTION
PRES   - MEAN SEA LEVEL PRESSURE IN INCHES OF MERCURY
         F - FALLING PRESSURE   R - RISING PRESSURE
         S - STEADY PRESSURE
VSB    - VISIBILITY IN MILES
HX     - HEAT INDEX IN FAHRENHEIT
WCI    - WIND CHILL INDEX IN FAHRENHEIT
TC     - TEMPERATURE IN CELSIUS WHICH IS ALSO KNOWN AS
         TEMPERATURE IN CENTIGRADE
AFB    - AIR FORCE BASE
         LUKE AFB IS LUKE AIR FORCE BASE
         DAVIS-MONTHAN IS DAVIS-MONTHAN AIR FORCE BASE
NAS    - NAVAL AIR STATION
         EL CENTRO NAS IS EL CENTRO NAVAL AIR STATION
N/A    - NOT AVAILABLE





USA.gov is the U.S. government's official web portal to all federal, state and local government web resources and services.